CAPE
989 763 249 0 0 0 8 48 50 26 9 0 0 0 0 0 0 0 0 0 0 0 0 0 2 0 10 18 5 0 0 0 0 2 1 1 1 1 1 1 1 1 2
678 335 71 0 1 88 33 37 19 0 0 0 0 0 0 0 0 0 0 0 0 0 0 0 0 0 0 0 0 0 0 0 0 0 2 1 1 1 1 0 0 0 0
454 195 25 43 135 107 15 11 2 0 0 0 0 0 0 0 0 0 0 0 0 0 0 0 0 0 0 0 0 0 0 0 1 0 1 2 2 1 1 0 0 0 0
243 158 82 102 129 48 11 23 2 0 0 0 0 0 0 0 0 0 0 0 0 0 0 0 0 0 0 0 0 0 0 1 0 0 1 2 2 2 0 0 0 0 0
26 0 96 186 121 62 32 15 0 0 0 0 0 0 0 0 0 0 0 0 0 0 0 0 0 0 0 0 0 0 0 0 0 0 1 2 1 2 0 0 0 0 0
0 38 260 300 168 74 37 13 1 18 3 0 0 0 0 0 0 0 0 0 0 0 0 0 0 0 0 0 0 0 0 0 0 0 1 1 0 0 0 0 0 0 0
1 287 503 430 212 175 124 104 23 30 39 0 0 0 0 0 0 0 0 0 0 0 0 0 0 0 0 0 0 0 0 0 0 0 0 0 0 0 0 0 0 0 0
143 476 707 637 417 288 256 180 82 26 34 0 0 0 0 0 0 0 0 0 0 0 0 0 0 0 0 0 0 0 0 0 0 0 0 0 0 0 0 0 1 0 0
291 693 809 721 593 385 370 338 218 145 70 6 0 0 0 0 0 0 0 0 0 0 0 0 0 0 0 0 0 0 0 0 0 0 0 0 0 0 0 0 0 0 0
649 903 825 784 630 556 512 402 322 196 95 63 16 0 0 0 0 0 0 0 0 0 0 0 0 0 0 0 0 0 0 0 0 0 0 0 0 0 0 0 0 0 0
611 912 971 905 698 610 499 409 266 166 131 107 56 2 0 0 0 0 0 0 0 0 0 0 0 0 0 0 0 0 0 0 0 0 0 0 0 0 0 0 0 0 0
608 921 1191 1132 933 631 674 526 298 219 184 190 107 42 0 0 0 0 0 0 0 0 0 0 0 0 0 0 0 0 0 0 0 0 0 0 0 0 0 0 0 0 0
1019 1137 1024 1072 1180 1014 821 767 612 393 302 219 112 42 17 0 0 0 0 0 0 0 0 0 0 0 0 0 0 0 0 0 0 0 0 0 0 0 0 0 0 0 0
1290 1292 1118 1103 1140 1129 1019 1018 843 722 586 420 243 154 24 0 1 0 0 0 0 0 0 0 0 0 0 0 0 0 0 0 0 0 0 0 0 0 0 0 0 0 0
1032 963 1076 996 1014 850 648 535 516 211 273 499 411 333 201 79 8 0 0 0 0 0 0 0 0 0 0 0 0 0 0 0 0 0 0 0 0 0 0 0 0 0 0
617 590 530 529 339 177 126 56 0 0 0 0 0 0 0 5 0 0 0 0 0 0 0 0 0 0 0 0 0 0 0 0 0 0 0 0 0 0 0 0 0 0 0
111 102 120 142 108 89 2 0 0 0 0 0 0 0 0 0 0 0 0 0 0 0 0 0 0 0 0 0 0 0 0 0 0 0 0 0 0 0 0 0 0 0 0
1 0 1 20 22 7 0 0 0 1 0 0 0 0 0 0 0 0 0 2 0 0 0 0 0 0 0 0 0 0 0 0 0 0 0 0 0 0 0 0 0 0 0
0 0 0 0 0 0 0 0 0 2 0 0 0 0 0 0 0 0 1 1 0 0 0 0 0 0 0 0 0 0 0 0 0 0 0 0 0 0 0 0 0 0 0
0 0 0 0 0 0 0 0 0 2 1 0 0 0 0 0 0 0 0 0 0 0 0 0 0 0 0 0 0 0 0 0 0 0 0 0 0 0 0 0 0 0 0
76 0 0 0 0 0 0 0 1 4 0 0 0 0 0 0 0 0 0 0 0 0 0 0 0 0 0 0 0 0 0 0 0 0 0 0 0 0 0 0 0 0 0
62 0 0 0 0 0 0 0 0 0 3 2 1 0 0 0 0 0 0 0 0 0 0 0 0 0 0 0 0 0 0 0 0 0 0 0 0 0 0 0 0 0 0
13 18 0 0 0 0 0 0 0 0 0 0 7 4 0 0 0 0 0 0 0 0 0 0 0 0 0 0 0 0 0 0 0 0 0 0 0 0 0 0 0 0 0
34 28 27 13 0 5 6 28 0 0 0 0 4 6 5 2 0 0 0 0 0 0 0 0 0 0 0 0 0 0 0 0 0 0 0 0 0 0 0 0 0 0 0
3 39 18 13 18 3 0 0 0 0 0 0 0 0 0 0 0 0 0 0 0 0 0 0 0 0 0 0 0 0 0 0 0 0 0 0 0 0 0 0 0 0 0
8 14 13 0 0 0 0 0 0 0 0 0 0 0 0 0 0 0 0 0 0 0 0 0 0 0 0 0 0 0 0 0 0 0 0 0 0 0 0 0 0 0 0
CIN
-197 -180 -234 -0 -0 -0 -82 -87 -120 -119 -128 -0 -0 -0 -0 -0 -0 -0 -0 -0 -0 -0 -0 -40 -223 -0 -231 -158 -194 -0 -0 -0 -0 -0 -0 -0 -0 -0 -0 -0 -0 -0 -0
-269 -266 -281 -0 -38 -152 -148 -133 -164 -0 -0 -0 -0 -0 -0 -0 -0 -0 -0 -0 -0 -0 -0 -0 -0 -0 -0 -4 -0 -0 -0 -0 -0 -0 -0 -0 -0 -0 -0 -0 -0 -0 -0
-356 -329 -327 -283 -200 -160 -189 -183 -30 -0 -0 -0 -0 -0 -0 -0 -0 -0 -0 -0 -0 -0 -0 -0 -0 -0 -0 -0 -0 -0 -0 -0 -0 -0 -0 -0 -0 -0 -0 -0 -0 -0 -0
-405 -366 -305 -237 -198 -205 -190 -134 -51 -0 -0 -0 -0 -0 -0 -0 -0 -0 -0 -0 -0 -0 -0 -0 -0 -0 -0 -0 -0 -0 -0 -0 -0 -0 -0 -0 -0 -0 -0 -0 -0 -0 -0
-96 -0 -315 -226 -205 -208 -186 -133 -0 -0 -0 -0 -0 -0 -0 -0 -0 -0 -0 -0 -0 -0 -0 -0 -0 -0 -0 -0 -0 -0 -0 -0 -0 -0 -0 -0 -0 -0 -0 -0 -0 -0 -0
-0 -387 -238 -192 -179 -201 -215 -189 -22 -113 -90 -0 -0 -0 -0 -0 -0 -0 -0 -0 -0 -0 -0 -0 -0 -0 -0 -0 -0 -0 -0 -0 -0 -0 -0 -0 -0 -0 -0 -0 -0 -0 -0
-30 -295 -191 -170 -188 -166 -139 -116 -129 -85 -71 -0 -0 -0 -0 -0 -0 -0 -0 -0 -0 -0 -0 -0 -0 -0 -0 -0 -0 -0 -0 -0 -0 -0 -0 -0 -0 -0 -0 -0 -0 -0 -4
-406 -254 -151 -149 -152 -160 -113 -98 -112 -114 -82 -0 -0 -0 -0 -0 -0 -0 -0 -0 -0 -0 -0 -0 -0 -0 -0 -0 -0 -0 -0 -0 -0 -0 -0 -0 -0 -0 -0 -12 -12 -0 -0
-352 -206 -140 -168 -148 -164 -143 -116 -106 -87 -82 -166 -0 -0 -0 -0 -0 -0 -0 -0 -0 -0 -0 -0 -0 -0 -0 -0 -0 -0 -0 -0 -0 -0 -0 -0 -0 -0 -0 -0 -0 -0 -0
-260 -203 -201 -152 -151 -151 -130 -134 -130 -108 -91 -107 -138 -0 -0 -0 -0 -0 -0 -0 -0 -0 -0 -0 -0 -0 -0 -0 -0 -0 -0 -0 -0 -0 -0 -0 -0 -0 -0 -0 -0 -0 -0
-269 -195 -147 -116 -115 -130 -136 -166 -175 -171 -144 -123 -116 -23 -0 -0 -0 -0 -0 -0 -0 -0 -0 -0 -0 -0 -0 -0 -0 -0 -0 -0 -0 -0 -0 -0 -0 -0 -0 -0 -0 -0 -0
-225 -153 -113 -96 -107 -148 -135 -162 -160 -159 -125 -106 -103 -113 -0 -0 -0 -0 -0 -0 -0 -0 -0 -0 -0 -0 -0 -0 -0 -0 -0 -0 -0 -0 -0 -0 -0 -0 -0 -0 -0 -0 -0
-127 -118 -117 -116 -100 -103 -100 -85 -80 -86 -87 -84 -94 -124 -134 -0 -0 -0 -0 -0 -0 -0 -0 -0 -0 -0 -0 -0 -0 -0 -0 -0 -0 -0 -0 -0 -0 -0 -0 -0 -0 -0 -0
-101 -97 -129 -120 -96 -95 -83 -46 -40 -35 -40 -53 -62 -74 -117 -0 -141 -0 -0 -0 -0 -0 -0 -0 -0 -0 -0 -0 -0 -0 -0 -0 -0 -0 -0 -0 -0 -0 -0 -0 -0 -0 -0
-123 -140 -119 -126 -104 -117 -160 -136 -97 -180 -104 -50 -56 -49 -55 -83 -124 -0 -0 -0 -0 -0 -0 -0 -0 -0 -0 -0 -0 -0 -0 -0 -0 -0 -0 -0 -0 -0 -0 -0 -0 -0 -0
-146 -161 -162 -171 -206 -251 -278 -301 -0 -0 -0 -0 -0 -0 -0 -39 -0 -0 -0 -0 -0 -0 -0 -0 -0 -0 -0 -0 -0 -0 -0 -0 -0 -0 -0 -0 -0 -0 -0 -0 -0 -0 -0
-267 -295 -279 -241 -287 -323 -126 -0 -8 -0 -0 -0 -0 -0 -0 -0 -0 -0 -0 -0 -0 -0 -0 -0 -0 -0 -0 -0 -0 -0 -0 -0 -0 -0 -0 -0 -0 -0 -0 -0 -0 -0 -0
-308 -0 -114 -269 -319 -357 -0 -0 -0 -10 -0 -0 -0 -0 -0 -0 -0 -0 -0 -0 -0 -0 -0 -0 -0 -0 -0 -0 -0 -0 -0 -0 -0 -0 -0 -0 -0 -0 -0 -0 -0 -0 -0
-0 -0 -0 -0 -0 -0 -0 -0 -3 -37 -4 -0 -0 -0 -0 -0 -0 -0 -0 -0 -0 -0 -0 -0 -0 -0 -0 -0 -0 -0 -0 -0 -0 -0 -0 -0 -0 -0 -0 -0 -0 -0 -0
-0 -0 -0 -0 -0 -0 -0 -0 -4 -29 -35 -0 -0 -0 -0 -0 -0 -0 -0 -0 -0 -0 -0 -0 -0 -0 -0 -0 -0 -0 -0 -0 -0 -0 -0 -0 -0 -0 -0 -0 -0 -0 -0
-121 -0 -0 -0 -0 -0 -0 -0 -25 -29 -0 -0 -0 -0 -0 -0 -0 -0 -0 -0 -0 -0 -0 -0 -0 -0 -0 -0 -0 -0 -0 -0 -0 -0 -0 -0 -0 -0 -0 -0 -0 -2 -0
-54 -0 -0 -0 -0 -0 -0 -0 -0 -0 -58 -23 -27 -35 -0 -0 -0 -0 -0 -0 -0 -0 -0 -0 -0 -0 -0 -0 -0 -0 -0 -0 -0 -0 -0 -0 -0 -0 -0 -0 -0 -0 -24
-42 -26 -0 -0 -0 -0 -0 -0 -20 -26 -0 -0 -116 -112 -0 -0 -0 -0 -0 -0 -0 -0 -0 -0 -0 -0 -0 -0 -0 -0 -0 -0 -0 -0 -0 -0 -0 -0 -0 -0 -0 -0 -0
-76 -61 -47 -43 -6 -54 -42 -36 -5 -0 -0 -0 -115 -141 -147 -135 -0 -0 -0 -0 -0 -0 -0 -0 -0 -0 -0 -0 -0 -0 -0 -0 -0 -0 -0 -0 -0 -0 -0 -0 -0 -0 -0
-63 -65 -54 -62 -55 -30 -0 -0 -0 -0 -0 -0 -0 -0 -0 -0 -0 -0 -0 -0 -0 -0 -0 -0 -0 -0 -0 -0 -0 -0 -0 -0 -0 -0 -0 -0 -0 -0 -0 -0 -0 -0 -0
-71 -83 -79 -0 -0 -0 -0 -0 -0 -0 -0 -0 -0 -0 -0 -0 -0 -0 -0 -0 -0 -0 -0 -0 -0 -0 -0 -0 -0 -0 -0 -0 -0 -0 -0 -0 -0 -0 -0 -0 -0 -0 -0
Wind_Speed
14 14 15 17 21 23 23 22 14 12 9 10 11 13 14 14 15 15 15 15 14 13 13 13 13 13 13 12 10 8 8 9 10 10 9 11 12 12 14 15 15 14 13
15 15 15 17 18 19 19 18 18 16 13 12 12 13 14 15 15 15 14 13 13 12 13 13 14 14 14 13 11 10 9 9 8 9 7 9 10 12 13 13 14 14 14
15 15 15 16 16 16 16 15 14 14 12 11 11 12 12 14 14 14 13 12 13 13 13 14 15 15 14 13 12 10 10 10 8 7 7 8 9 10 11 12 13 13 14
14 14 15 16 16 16 16 15 13 11 10 10 11 11 11 12 13 14 13 13 13 13 14 14 15 15 14 13 12 10 10 9 8 7 7 7 8 9 9 10 11 11 13
13 15 15 15 16 16 17 16 15 10 9 9 10 11 12 12 12 13 13 14 14 14 15 15 15 15 14 13 12 11 10 9 8 7 6 6 7 7 7 9 9 10 12
13 13 13 14 15 15 16 16 16 12 10 7 8 10 11 11 11 11 12 13 14 14 14 15 15 15 14 14 13 12 11 9 8 8 7 6 6 7 7 7 8 10 13
12 12 12 12 13 13 13 14 15 15 10 9 7 9 9 10 10 11 11 12 13 14 14 14 15 14 13 14 14 13 12 11 9 8 6 6 6 6 6 7 8 12 13
13 11 11 11 11 11 11 11 13 14 13 10 6 10 9 9 9 9 11 12 13 13 14 14 14 13 13 12 13 13 12 12 11 10 8 8 9 7 7 10 10 12 14
12 12 11 9 9 9 9 9 10 11 11 11 8 8 8 7 8 8 10 11 13 14 14 14 13 12 11 12 12 12 12 12 12 10 10 10 9 8 9 10 10 11 13
10 10 10 9 8 7 7 7 8 8 8 9 9 8 7 8 6 5 7 9 12 13 14 13 12 11 10 11 10 10 10 10 10 10 11 11 12 12 9 10 9 10 13
8 6 7 10 11 8 5 4 5 6 5 4 5 6 7 6 5 5 6 5 7 10 12 11 10 9 8 9 10 10 9 9 9 9 10 11 12 13 13 13 12 11 12
5 5 6 8 7 4 4 3 3 3 3 3 3 1 2 3 5 2 2 3 4 5 6 9 8 7 8 6 8 10 7 8 8 8 9 10 11 12 13 14 13 13 13
3 4 7 3 2 3 7 6 5 6 6 3 4 5 3 3 4 2 1 4 1 2 5 5 5 4 6 8 6 6 6 7 7 8 8 8 9 11 12 13 13 13 12
6 4 7 8 9 11 11 8 7 6 5 2 2 4 7 9 9 10 10 10 12 7 7 7 8 7 8 9 9 8 9 9 6 7 8 7 9 9 10 11 12 12 11
11 11 12 11 10 13 15 17 14 13 13 11 8 7 6 6 8 9 10 11 11 9 9 11 11 10 10 11 10 9 10 9 8 7 6 7 8 8 9 10 13 12 13
15 15 15 15 17 16 17 18 18 16 18 20 20 17 18 10 10 7 8 10 12 11 13 11 10 10 10 10 8 8 10 8 8 7 8 7 8 7 8 10 12 12 12
11 12 12 13 15 19 20 19 18 18 19 22 23 23 20 18 16 8 7 7 8 7 10 10 9 8 8 8 8 8 8 7 8 8 7 8 9 10 9 10 9 10 10
15 15 14 16 17 17 17 18 19 20 23 25 22 23 23 24 22 14 10 9 10 10 11 11 11 10 10 10 10 9 9 11 10 10 10 9 10 10 9 9 9 10 10
17 18 18 18 18 18 18 17 20 21 23 24 23 22 22 21 20 17 9 10 10 11 12 12 12 13 13 13 13 13 13 15 13 12 12 11 9 9 10 10 9 9 10
15 18 19 20 21 22 21 19 19 20 22 23 23 23 20 19 18 16 14 14 14 14 14 14 14 15 15 16 16 16 16 19 19 16 14 13 11 10 10 10 9 10 10
16 19 19 21 22 21 20 19 20 21 22 23 23 20 17 18 18 17 16 15 15 17 16 18 18 20 20 20 19 19 19 20 19 16 15 14 13 13 11 10 10 11 12
15 17 18 19 21 21 20 21 21 21 21 22 22 21 17 18 18 18 17 17 17 19 21 22 23 24 24 23 22 21 21 21 20 18 17 15 15 14 14 12 12 14 14
20 17 18 18 20 22 23 23 22 23 24 24 23 22 20 18 18 17 16 17 18 19 21 22 25 27 25 23 22 22 22 21 19 19 18 17 16 16 17 16 16 15 16
20 19 22 21 21 22 23 23 23 26 26 24 23 22 20 20 19 19 20 20 21 22 22 22 23 24 25 25 22 20 20 22 22 21 20 19 19 18 17 17 18 17 16
24 21 20 19 18 19 20 20 23 25 26 26 27 27 26 23 23 22 22 22 23 26 27 27 26 25 23 24 20 20 23 22 21 22 22 20 19 21 21 19 15 17 17
24 19 17 16 17 17 20 22 23 24 26 26 26 26 26 24 24 22 22 22 23 23 25 26 27 29 31 30 28 27 26 24 21 17 19 21 21 21 19 19 19 23 22
Wind_Direction
80 80 76 76 83 81 85 91 62 59 30 28 24 20 12 357 351 342 338 329 327 316 317 334 335 342 14 40 60 50 54 46 59 20 29 27 22 22 22 30 28 26 7
80 86 86 89 89 87 85 90 92 78 54 46 35 22 17 13 359 351 343 327 325 332 328 347 353 5 14 25 38 36 45 11 46 68 31 9 14 18 23 23 17 16 21
84 89 97 96 94 90 89 87 76 67 53 36 29 24 14 8 3 357 354 341 334 341 341 352 355 6 13 20 19 17 11 12 29 58 33 11 5 15 17 13 18 19 18
88 89 103 102 90 83 85 89 76 47 46 33 28 24 15 9 3 0 358 350 345 342 347 352 356 4 9 11 12 12 15 18 34 47 24 20 5 10 14 24 19 17 17
91 98 103 95 92 85 81 89 82 46 28 38 34 18 17 19 12 5 360 354 351 348 348 349 355 3 9 7 10 17 21 27 43 50 36 15 7 9 9 15 14 24 8
100 101 98 89 93 90 87 83 84 73 73 32 21 26 14 15 16 9 3 356 348 348 349 349 350 357 6 9 10 14 24 36 36 18 1 14 11 12 19 30 27 6 350
114 113 109 100 98 94 88 81 77 81 66 83 32 9 17 15 16 16 10 357 351 347 347 349 349 351 1 6 7 10 14 4 14 17 24 11 12 28 31 15 3 353 352
130 128 124 112 104 91 92 85 75 83 90 83 38 357 11 1 16 12 4 358 351 352 348 348 349 351 357 5 6 4 3 4 5 5 25 19 1 28 25 356 355 352 352
138 140 137 122 117 102 93 83 71 67 81 86 68 18 26 12 22 20 6 3 0 351 347 341 346 2 3 359 3 3 2 354 353 9 12 16 20 31 17 9 355 351 343
141 145 139 137 130 120 105 89 60 57 76 101 111 87 60 55 10 36 22 8 352 355 353 350 356 1 11 359 1 11 5 358 13 15 13 12 7 3 8 352 354 345 343
136 136 142 147 156 144 121 74 45 45 51 66 108 122 114 85 79 46 79 52 26 3 1 4 3 3 8 13 5 1 5 20 17 22 18 12 5 2 1 358 352 347 345
139 149 169 166 169 147 138 80 64 43 10 348 351 78 109 81 128 91 26 11 358 3 20 8 13 10 354 2 356 348 7 5 4 3 0 359 357 355 359 358 0 0 355
153 200 204 194 195 331 347 355 351 347 343 329 314 308 298 305 320 303 249 320 303 222 334 2 18 12 351 343 346 344 346 336 338 336 336 341 346 352 356 355 355 359 6
321 307 305 323 328 330 336 340 349 346 345 347 310 295 305 305 300 303 302 310 316 302 310 320 331 337 336 332 327 326 323 321 309 315 321 331 346 353 352 358 354 355 349
328 324 320 326 329 328 330 328 335 338 335 334 329 323 311 283 281 288 290 295 300 299 301 306 308 314 315 320 320 318 320 327 327 331 336 338 340 341 344 349 347 344 342
318 321 322 320 320 324 326 327 330 333 327 322 321 321 321 306 304 271 255 274 292 289 291 288 283 293 295 303 306 309 314 313 318 320 322 324 326 329 334 334 335 336 336
334 337 334 331 326 320 318 322 325 332 329 323 319 314 313 313 316 287 262 253 267 268 279 273 266 270 274 288 286 289 303 308 316 313 316 318 320 320 323 326 329 333 332
330 332 332 328 323 323 322 321 321 323 324 322 323 319 317 312 311 307 292 293 289 276 277 272 271 273 272 277 279 277 287 301 301 301 303 308 314 313 314 318 319 321 321
324 324 327 328 326 323 322 321 318 321 321 322 324 321 321 318 314 315 306 296 284 281 277 274 277 277 280 280 278 276 281 289 290 292 288 293 297 303 307 311 309 313 316
324 322 324 323 322 321 320 320 320 320 321 321 322 322 324 324 318 313 308 301 296 296 286 283 280 282 285 284 279 274 278 287 288 280 275 277 282 286 292 289 297 305 308
320 319 322 320 319 321 321 322 321 321 321 321 322 327 327 322 319 315 310 304 295 292 292 293 288 286 289 288 281 275 277 285 287 282 272 267 272 278 283 279 281 288 300
315 317 322 322 319 319 322 322 323 324 324 323 323 324 326 322 319 316 312 309 304 298 297 296 293 291 291 288 283 277 276 280 281 279 274 268 267 268 274 271 276 286 287
307 313 318 320 322 320 319 320 322 323 324 322 321 321 322 322 317 315 316 314 313 311 306 301 297 295 292 288 284 280 275 277 276 274 270 268 263 266 271 272 280 279 281
311 307 310 312 317 321 322 322 324 325 326 327 326 325 324 321 316 313 313 313 312 313 310 307 305 302 298 291 286 278 272 279 280 279 266 266 267 269 267 270 279 284 292
309 307 310 313 315 320 325 328 330 331 331 330 327 324 323 323 323 319 316 314 312 311 309 306 307 306 302 298 287 281 283 283 275 274 269 265 264 270 270 278 275 284 287
313 315 313 318 318 324 326 329 335 337 336 335 335 335 335 335 332 333 331 328 324 323 321 318 316 316 309 303 299 291 290 289 287 278 276 272 273 278 280 283 291 293 291